Theta_e
327 325 323 324 325 325 325 325 326 327 325 323 323 323 324 326 330 331 329 326 324 319 316 317 317 317 321 325 324 321 320 322 324 325 323 321 319 320 321 321 321 321 321 322 323 323 322 322 322 323 323 324 325 326 326 327 327 327 325 323 320 318 316 314 313 313 313 315 319 322 325 327 329 330
323 321 319 320 320 319 318 320 322 323 320 318 317 318 319 320 324 327 327 324 320 318 316 315 316 317 319 321 320 318 317 318 320 321 319 317 317 317 317 317 316 316 317 318 320 321 321 321 320 320 320 320 321 322 323 324 326 327 328 327 325 321 319 316 314 314 314 315 318 319 321 322 324 326
318 317 317 317 317 315 315 316 318 318 316 315 316 316 316 317 318 319 322 321 317 315 316 315 315 316 317 317 316 315 314 314 315 315 314 314 315 315 315 314 314 314 316 316 318 320 322 322 320 319 319 319 319 320 321 321 322 323 324 325 325 324 322 320 317 315 314 315 317 318 319 321 321 323
315 315 316 316 315 315 314 315 315 315 315 315 315 315 315 316 317 316 317 318 316 314 315 315 315 315 315 315 314 313 312 311 311 310 309 309 311 311 312 313 313 314 316 316 316 316 317 316 315 316 317 318 319 320 321 320 320 320 320 321 322 322 321 320 319 316 315 315 315 316 317 319 320 321
313 313 314 315 314 314 314 313 314 314 314 314 314 314 314 314 315 315 315 314 314 313 314 315 314 314 314 313 312 311 310 309 307 307 306 306 306 307 308 309 310 312 315 316 314 313 311 310 310 312 314 316 317 318 318 318 318 319 319 319 319 320 320 320 319 317 316 315 316 315 315 316 318 319
311 313 313 313 312 312 311 311 311 312 312 313 312 312 312 312 312 313 313 313 312 312 314 313 313 313 313 311 309 307 305 304 303 303 303 302 302 302 302 303 303 305 310 312 312 312 310 308 309 310 312 315 316 317 316 316 316 317 318 319 319 319 319 320 320 319 318 318 318 318 317 315 315 317
308 311 312 311 309 308 308 308 309 308 308 309 309 307 307 306 306 308 311 312 311 311 312 312 311 311 311 309 306 303 300 300 299 300 299 299 299 298 298 299 299 299 303 307 308 308 306 307 309 309 310 313 314 315 316 315 314 315 316 318 319 319 319 319 320 320 320 320 320 320 319 317 315 315
304 306 308 308 307 305 306 308 308 307 306 306 306 304 302 300 299 302 306 309 309 309 310 311 309 309 309 307 303 300 298 298 298 298 298 298 297 297 298 300 301 301 302 303 303 304 305 307 309 310 311 312 312 313 315 316 315 315 316 316 317 318 318 319 319 320 320 320 320 320 319 318 316 314
303 303 304 305 304 304 305 306 307 307 307 307 307 305 303 300 297 298 301 305 307 307 308 309 308 307 307 305 303 301 300 300 300 299 300 300 299 298 299 301 303 303 303 303 303 305 307 308 310 311 311 310 310 311 314 315 314 313 313 313 313 313 315 317 318 318 319 319 319 320 319 319 317 316
304 304 304 304 304 304 305 306 307 307 307 308 309 309 307 304 302 299 299 300 302 303 305 307 307 307 307 306 304 304 303 302 303 302 302 302 301 300 299 300 302 303 303 303 304 305 306 307 309 309 308 308 308 309 309 309 307 306 307 308 308 307 310 315 318 318 318 318 317 318 319 319 319 318
306 306 306 305 305 305 306 306 306 307 308 308 309 309 308 307 305 303 300 299 300 302 303 304 306 306 306 306 305 305 304 304 304 303 303 303 302 301 301 301 302 302 302 301 302 303 304 305 306 306 306 306 306 306 306 305 304 304 306 308 308 309 311 314 316 317 318 317 317 316 316 317 318 319
307 306 306 307 307 307 307 306 306 307 308 309 309 309 308 307 305 303 301 301 302 303 304 304 305 304 305 305 305 305 305 304 304 304 303 304 304 303 302 302 302 302 302 301 301 302 303 304 304 304 304 304 304 304 304 303 304 306 307 308 309 310 312 314 314 315 316 316 316 316 316 316 316 317
305 304 305 306 308 308 308 307 307 307 308 309 310 310 308 306 305 302 301 302 302 303 305 305 305 304 304 305 305 305 306 305 305 304 304 305 305 303 302 302 301 301 302 301 301 301 302 302 302 302 302 301 302 301 301 302 305 305 306 306 307 308 309 310 311 313 314 315 316 316 316 316 316 316
300 299 300 304 308 309 308 306 306 307 308 309 310 310 308 305 304 303 301 300 300 301 303 305 305 304 305 305 305 306 306 306 306 305 305 305 305 303 302 301 301 301 301 301 301 301 301 301 300 300 299 298 298 298 300 303 304 304 303 304 304 304 305 306 307 309 311 313 315 315 315 316 315 315
301 297 297 302 307 308 307 306 306 306 306 305 307 308 307 306 305 303 301 299 298 299 302 303 304 305 305 304 304 304 305 306 307 306 306 305 303 302 301 301 300 300 300 301 301 300 299 299 298 298 297 297 297 298 301 303 303 302 302 302 301 301 303 304 304 306 309 312 314 315 315 315 315 315
304 298 296 300 306 308 307 305 304 304 303 303 303 304 306 308 307 303 301 300 300 301 303 304 304 305 304 302 302 304 304 305 307 307 305 303 301 300 301 300 300 300 299 300 301 299 298 298 298 298 297 296 297 299 301 303 303 302 302 301 299 300 301 303 303 304 306 310 313 314 315 315 314 314
307 300 295 297 303 306 306 305 305 304 303 303 302 302 303 305 304 301 301 302 303 303 304 304 303 303 302 301 303 305 305 305 306 305 302 300 299 299 299 299 299 299 299 300 300 299 298 298 298 297 297 296 296 298 300 302 302 302 302 300 299 298 299 300 300 302 304 306 308 311 313 314 315 314
309 304 297 295 298 300 301 302 302 301 300 300 300 299 299 299 300 301 302 303 303 303 303 302 301 301 301 301 302 305 306 306 305 302 300 299 298 298 298 298 298 299 299 300 300 298 298 298 297 297 297 296 296 296 298 300 300 300 300 300 299 298 297 297 298 299 300 302 303 305 307 310 312 314
310 305 298 295 295 295 295 296 296 296 296 297 297 297 298 299 300 301 302 301 301 302 302 301 300 300 300 300 300 302 304 305 303 300 299 298 298 298 298 298 298 299 299 299 299 298 297 297 297 296 296 296 296 296 297 298 298 298 299 299 299 298 297 297 298 300 301 302 304 305 306 307 309 312
307 301 296 295 295 295 294 294 294 295 296 297 298 298 299 300 300 300 301 301 301 301 302 301 300 300 300 300 300 300 301 302 301 299 298 298 298 298 298 298 299 299 299 299 298 297 297 297 296 296 296 296 297 297 297 297 296 297 298 299 299 299 297 297 299 302 303 305 306 306 306 307 308 310
304 297 295 295 294 294 294 294 295 297 298 298 299 299 300 300 300 300 300 300 300 301 301 301 301 301 301 301 300 300 299 299 298 298 298 298 298 299 298 299 299 299 298 298 297 296 296 296 296 296 296 296 296 296 296 295 295 296 297 298 299 299 297 296 298 301 303 304 304 304 304 306 307 309
303 296 294 295 294 294 295 295 297 298 298 299 300 300 300 300 300 300 300 300 300 300 300 301 300 300 301 301 300 299 298 298 298 297 298 298 298 298 298 299 299 298 298 296 295 295 296 295 295 296 296 295 295 295 295 294 295 296 296 297 297 298 297 296 297 300 302 302 302 302 302 302 305 308
303 296 294 295 294 294 295 297 298 299 299 300 300 300 300 300 301 301 301 301 301 300 301 301 300 300 300 300 299 298 297 297 297 297 298 298 298 297 297 297 298 298 297 295 294 295 295 294 294 295 295 295 295 294 294 294 294 295 295 295 296 296 297 296 297 299 300 300 301 301 301 300 301 303
301 296 296 297 295 295 297 298 299 300 300 300 300 300 301 301 301 302 302 303 302 302 303 302 300 299 299 298 298 297 297 297 297 297 298 298 297 296 296 296 296 296 296 294 294 294 294 294 294 294 294 294 294 294 294 294 294 295 294 295 296 297 297 297 297 298 298 298 299 299 300 299 298 299
300 298 300 300 296 296 299 299 300 300 300 300 301 301 301 301 302 303 303 303 303 303 302 300 299 298 298 297 297 297 297 296 297 297 297 296 295 295 295 295 295 295 294 294 294 294 293 293 293 293 293 293 293 293 293 294 294 294 294 295 296 297 298 298 297 296 296 296 297 297 298 298 297 298
302 301 303 301 296 297 300 300 300 301 300 301 302 302 302 303 303 303 303 302 302 302 301 299 298 297 297 297 297 296 296 296 296 297 296 295 295 295 294 294 294 294 294 294 294 294 293 293 293 293 293 293 293 293 293 294 294 294 294 294 295 297 298 297 295 295 295 295 295 295 296 297 296 297
303 304 305 301 296 298 300 300 301 301 301 302 303 303 304 303 303 302 301 301 301 300 299 297 297 296 296 296 296 296 296 295 296 296 295 294 294 294 294 294 294 293 294 294 293 294 293 293 293 293 293 292 292 293 293 293 293 293 294 294 295 297 298 296 294 294 294 294 294 294 295 296 295 295
305 307 306 300 296 299 301 301 301 301 301 303 304 303 303 302 301 301 300 300 299 298 297 297 296 296 295 295 295 295 295 295 295 295 295 294 294 294 294 294 293 293 293 293 293 293 293 292 292 292 292 292 292 292 292 292 293 293 293 294 295 296 296 295 293 293 293 293 293 293 293 294 295 295
307 307 303 298 297 300 301 301 301 302 302 303 302 301 301 300 300 299 299 299 298 297 297 296 295 295 295 294 294 294 294 294 294 294 294 293 293 293 293 293 292 292 291 291 292 292 291 291 291 291 291 291 291 291 292 292 292 292 293 293 294 295 294 293 292 292 292 293 293 293 293 294 295 296
306 303 299 297 298 300 300 301 302 303 303 302 300 299 299 299 299 298 298 298 297 296 296 295 294 294 293 293 293 293 292 292 292 292 292 292 292 292 292 292 291 291 291 291 291 290 290 290 290 290 290 290 290 291 291 291 291 292 292 293 293 293 292 291 291 292 292 293 293 294 294 295 296 297
303 300 298 296 297 299 301 302 303 302 301 300 299 299 299 298 298 298 297 297 296 296 295 294 294 293 293 293 293 292 291 291 292 292 292 292 292 291 291 291 291 291 290 290 290 290 289 289 289 289 290 290 290 290 290 290 291 291 292 292 292 291 291 290 291 291 292 293 293 294 295 295 296 296
301 299 297 297 299 301 302 302 301 300 300 299 299 299 298 298 298 297 297 296 296 295 294 294 293 293 293 292 292 291 291 292 292 292 292 291 291 291 290 290 290 290 290 290 289 288 288 288 288 289 289 289 290 290 290 290 291 291 291 290 290 290 290 290 290 291 292 293 293 294 294 295 295 295
298 297 298 300 301 302 301 300 300 299 299 299 298 298 298 297 297 297 296 296 295 295 294 293 293 293 292 292 292 292 292 292 292 291 291 291 290 290 290 290 290 290 290 289 288 287 287 287 288 288 289 289 289 289 289 290 290 289 289 289 289 289 289 290 290 291 292 292 293 293 293 293 293 293
295 297 301 302 301 300 300 300 299 299 299 298 298 297 297 297 297 296 296 295 295 294 293 293 293 292 292 292 292 292 292 291 291 291 290 290 290 290 290 290 289 289 288 288 287 287 287 287 288 288 288 288 288 288 288 289 289 288 288 288 289 289 289 290 290 290 291 291 292 292 292 292 292 292
294 297 301 301 300 300 300 299 299 299 299 298 298 297 297 296 296 296 295 295 294 293 293 292 292 292 292 292 292 291 291 290 290 290 289 289 289 289 288 288 288 287 287 286 287 287 287 287 287 288 288 288 287 287 288 288 288 288 288 288 288 289 289 290 289 289 289 289 290 291 291 290 290 290
295 299 301 300 300 300 299 299 299 299 298 298 297 297 296 296 295 295 294 294 293 293 292 292 292 292 292 291 291 290 290 290 289 289 288 288 287 287 286 286 286 286 286 286 286 286 286 287 287 287 287 287 287 287 287 287 288 288 288 288 288 288 289 288 288 288 288 288 289 289 290 290 290 290
298 301 300 299 300 300 299 299 299 298 298 298 297 296 296 295 295 294 294 293 293 293 292 292 292 291 291 290 289 289 289 289 288 288 287 286 285 285 285 285 285 285 286 286 286 286 286 287 287 287 287 286 286 286 287 287 288 288 288 288 288 288 288 287 287 287 287 288 288 289 289 289 289 289
300 302 300 299 300 299 299 299 298 298 297 297 296 296 296 295 294 294 293 293 293 292 292 292 291 290 289 289 289 289 289 288 287 286 286 285 285 285 285 285 285 285 285 285 286 286 286 286 286 286 286 286 286 286 287 287 288 288 288 288 288 287 287 287 287 287 287 288 288 288 288 289 289 289
301 301 300 299 300 299 299 298 298 297 297 296 296 296 295 294 294 294 293 293 292 292 292 291 290 289 289 289 289 289 288 287 286 286 285 284 284 284 285 285 285 285 285 285 285 285 285 285 285 285 286 286 286 287 287 287 287 287 287 287 287 287 287 287 287 287 287 288 288 288 288 289 289 290
301 300 299 299 299 299 298 298 297 297 297 296 296 295 295 294 294 293 292 292 292 292 291 290 289 289 289 289 289 288 287 287 286 285 284 283 283 284 284 284 284 284 284 284 284 284 284 284 284 285 285 286 287 287 287 287 287 287 287 286 286 287 287 287 287 287 288 288 288 288 288 289 289 290
301 299 299 299 299 298 298 297 297 297 296 296 295 295 294 294 293 292 292 292 291 291 290 289 289 289 289 289 288 287 287 286 286 284 283 282 282 283 283 283 283 283 283 283 283 283 283 283 284 285 286 287 287 287 287 287 287 286 286 286 286 286 286 286 287 287 287 288 288 288 289 289 289 290
301 299 299 299 298 298 298 297 297 296 296 295 295 294 294 293 292 292 292 291 291 290 289 289 289 289 289 288 288 287 287 286 285 283 281 281 281 282 282 282 282 282 282 282 282 282 283 283 284 285 286 286 286 286 287 287 286 286 286 285 285 285 285 286 286 286 287 287 288 288 289 289 289 290
301 299 298 298 298 297 297 297 296 296 295 295 294 294 293 292 292 292 291 291 290 290 289 289 289 288 288 288 287 287 286 286 284 282 280 280 280 281 281 281 281 281 281 282 282 282 283 283 284 286 286 286 286 286 286 286 286 286 286 285 285 285 285 285 286 286 287 287 288 288 288 289 289 290
300 299 298 298 297 297 296 296 296 295 295 294 294 293 292 292 292 291 291 290 290 289 289 289 288 288 288 287 287 286 286 285 283 281 279 279 279 280 280 280 280 280 281 281 281 282 283 284 285 286 286 286 286 286 286 286 286 286 285 285 285 285 285 285 286 286 287 287 287 288 288 288 288 289
299 298 298 298 297 296 296 296 295 295 294 294 293 292 292 291 291 291 290 290 290 289 289 289 288 288 287 287 286 286 286 284 281 280 279 279 278 279 279 279 280 280 280 281 281 282 283 284 285 286 286 286 285 285 286 286 285 285 285 285 285 285 285 285 286 286 287 287 287 287 287 288 288 289
Wind_Speed
16 17 17 16 17 15 15 15 15 15 16 16 16 16 13 9 5 2 3 3 6 12 15 15 19 19 12 10 14 16 15 14 12 12 14 16 17 16 15 15 15 15 15 14 14 14 13 12 12 12 13 14 15 17 18 19 19 18 18 17 17 17 17 17 17 17 17 18 18 17 17 19 22 24
16 17 17 17 17 17 17 17 16 16 16 16 17 17 16 14 9 4 3 3 6 12 16 18 19 19 17 16 16 18 18 16 15 14 16 16 15 15 16 17 17 17 16 15 14 13 14 15 15 14 13 12 12 13 14 16 18 19 19 19 19 18 18 18 18 18 18 18 18 18 18 18 20 21
15 16 17 18 18 18 17 18 17 17 17 16 16 16 15 16 14 9 5 4 9 16 18 19 20 20 20 19 18 19 19 18 17 16 16 15 14 14 15 16 18 18 17 17 15 13 13 15 15 15 15 14 13 12 12 12 13 15 18 19 20 21 21 21 20 20 19 19 19 19 19 19 19 21
14 15 17 18 17 16 16 17 17 16 16 15 16 15 15 15 14 13 11 6 8 18 21 20 21 21 19 18 18 19 19 18 17 17 17 16 15 14 14 15 17 18 17 17 18 16 16 16 16 16 16 15 15 14 14 13 12 12 13 16 18 20 21 22 23 23 22 22 21 21 21 20 20 20
14 15 17 17 16 15 15 15 15 15 15 15 16 16 15 17 15 14 15 10 8 16 21 21 21 20 19 20 20 19 19 19 18 17 17 17 17 16 15 14 16 17 15 16 17 18 18 17 16 16 16 15 15 14 14 15 15 14 14 14 15 17 19 21 22 23 24 24 24 23 23 22 22 21
15 16 17 17 15 14 15 15 15 15 15 15 17 18 17 18 17 14 15 14 11 14 19 20 20 19 19 21 22 21 20 20 19 18 18 18 18 18 18 17 17 17 15 16 17 18 18 18 16 15 16 16 15 15 15 15 16 15 15 15 15 15 17 18 20 22 23 24 24 25 25 24 23 22
16 17 17 17 16 15 16 17 16 15 16 16 17 19 18 18 18 15 14 15 14 14 16 18 19 19 19 21 22 21 20 20 20 19 20 20 19 20 20 19 18 17 16 17 18 18 18 17 15 14 15 17 17 16 15 15 17 17 16 16 15 16 16 17 18 19 20 21 22 24 25 25 25 24
17 17 18 17 16 17 19 18 17 17 17 18 18 19 19 18 18 16 15 15 15 15 16 17 18 18 17 20 22 21 20 20 20 21 22 22 22 21 21 20 19 18 17 17 18 19 19 18 15 14 17 19 19 17 14 14 17 19 19 19 18 18 18 17 16 16 17 19 20 21 22 24 25 25
17 17 18 17 16 18 19 19 17 17 18 18 19 19 19 19 19 18 17 16 16 18 17 15 16 18 17 19 22 22 22 22 23 23 23 24 25 24 24 22 21 21 20 19 20 21 21 19 16 15 18 20 19 18 15 14 16 18 19 20 21 20 20 18 17 16 16 17 18 19 20 21 22 23
15 16 16 16 15 16 17 17 16 16 16 17 18 18 17 18 19 20 19 17 17 18 18 16 16 17 17 18 21 22 21 22 24 25 25 25 27 27 27 26 25 25 24 22 23 25 24 22 20 18 19 19 18 17 17 17 18 20 21 22 22 21 20 18 17 17 17 18 18 18 19 20 21 22
14 14 14 14 14 14 15 15 15 15 15 16 16 16 16 16 17 19 20 19 18 18 18 17 16 16 16 17 19 19 20 21 23 25 26 26 28 29 29 27 27 28 27 25 25 25 23 22 21 20 20 20 20 19 19 20 22 23 24 24 23 21 19 17 17 18 19 19 19 19 19 20 21 22
13 13 12 12 12 12 12 12 13 13 13 14 14 14 14 14 16 18 18 19 19 18 18 17 16 16 17 17 18 19 21 21 21 22 22 23 26 28 28 26 26 28 29 28 26 26 24 23 24 24 23 23 23 22 22 22 23 24 24 24 23 21 19 17 18 19 19 19 20 20 20 20 20 21
12 11 11 11 12 11 11 11 11 12 13 13 13 12 12 13 15 16 17 17 17 17 16 15 16 17 17 17 18 18 18 17 16 17 18 19 21 24 27 27 25 25 27 28 27 25 25 25 27 28 28 28 27 25 24 23 24 26 25 24 24 23 21 20 20 19 19 19 19 19 21 21 22 22
13 11 10 11 12 11 11 11 11 12 13 13 12 11 11 12 13 15 16 16 15 14 13 13 13 14 15 16 17 16 15 14 13 13 16 18 18 20 23 25 26 25 25 26 26 25 25 27 29 29 30 31 29 25 22 22 25 26 26 26 27 25 23 22 22 21 20 19 18 19 20 21 22 23
13 12 11 11 12 11 10 10 10 11 12 12 12 11 9 9 11 13 14 15 13 12 11 11 12 13 14 17 18 16 15 14 13 11 13 15 16 17 16 17 21 24 23 22 23 24 25 27 29 29 31 32 30 24 20 21 23 25 27 29 29 27 25 24 23 23 22 21 20 19 19 20 21 23
13 12 12 12 11 11 9 8 8 9 10 11 12 11 10 8 9 12 14 14 13 12 12 12 13 14 14 17 19 17 13 13 11 9 11 12 13 14 13 13 16 20 20 19 19 21 24 25 26 29 31 33 32 25 21 21 21 23 28 31 31 29 27 26 25 24 23 21 21 20 19 20 21 22
12 11 11 11 11 10 8 7 6 6 7 8 9 10 10 9 9 12 14 15 15 14 15 14 14 14 14 16 19 17 12 9 7 8 10 11 13 14 13 14 16 17 18 17 15 17 22 23 23 27 31 32 32 27 22 22 22 23 27 30 31 31 30 28 28 26 24 22 22 22 21 20 20 21
11 10 10 11 11 9 7 6 5 4 5 6 7 8 10 10 11 12 14 14 14 14 14 13 14 14 13 15 17 17 14 10 7 9 11 12 14 14 14 15 16 16 17 15 12 14 20 21 21 25 30 31 31 27 23 23 25 25 26 27 28 30 31 30 29 27 26 25 24 23 22 22 21 21
10 9 9 11 10 8 7 6 6 6 6 7 9 10 11 12 12 12 13 13 13 13 12 11 12 14 13 13 14 15 14 10 8 10 12 14 14 15 15 14 15 16 17 13 10 13 19 20 20 23 27 28 27 25 23 24 26 26 24 23 24 26 29 30 28 26 26 25 23 23 22 22 21 20
10 9 9 10 9 8 7 7 7 8 9 10 12 13 13 12 11 11 12 13 13 13 11 9 9 12 12 10 11 12 12 10 10 12 15 16 15 14 14 12 13 17 15 11 13 16 19 19 20 23 24 24 24 23 23 25 28 26 23 21 21 23 27 29 28 27 26 24 22 22 22 22 22 21
10 9 9 10 9 8 8 7 8 9 10 12 14 14 13 11 10 11 11 11 11 11 11 10 10 12 12 9 8 11 12 12 15 17 17 16 14 14 12 9 12 15 13 13 18 20 18 19 21 22 21 21 20 20 24 29 29 26 24 22 20 21 25 28 27 26 26 24 22 23 24 24 23 22
11 11 11 10 9 9 8 9 10 10 10 12 14 14 13 11 10 9 9 10 10 10 11 13 13 13 12 8 6 10 14 16 17 17 16 13 12 12 11 9 12 13 12 15 21 21 19 21 23 22 21 19 17 19 25 29 28 25 24 23 21 21 24 25 25 25 23 22 23 24 26 27 26 24
13 13 12 11 9 9 10 10 11 10 10 11 11 11 10 9 8 8 9 10 11 11 13 16 14 12 11 9 8 12 16 17 17 16 15 13 12 11 11 12 11 7 8 16 20 19 19 22 23 23 19 13 14 21 28 30 29 27 26 26 23 22 23 25 25 24 21 21 23 25 26 28 29 28
17 16 13 11 9 9 11 11 10 10 9 8 8 7 6 6 6 8 9 10 11 13 14 14 12 10 11 11 12 15 17 16 16 15 14 13 13 13 14 15 12 8 10 16 18 16 18 20 21 23 19 12 13 22 29 30 29 27 28 29 27 24 24 25 24 22 22 23 24 24 26 28 30 29
21 18 14 10 9 10 11 11 9 8 7 6 6 6 6 6 7 9 10 10 10 12 12 10 9 9 11 13 14 16 16 15 14 13 11 12 13 14 15 15 14 14 15 16 17 18 20 20 20 23 22 17 17 23 27 27 28 28 28 29 29 26 24 21 21 22 25 26 26 26 27 29 29 29
23 19 14 10 9 11 11 9 7 6 5 5 5 6 6 7 8 9 9 8 9 9 9 8 9 11 12 13 14 14 14 14 12 9 10 11 12 12 12 13 14 16 17 16 17 18 20 21 21 22 22 20 20 22 23 23 25 28 29 28 27 24 20 19 21 25 27 28 29 29 29 29 30 29
24 20 14 10 9 11 10 7 5 3 3 4 4 4 4 6 7 6 6 7 7 7 7 8 10 11 11 12 13 13 14 14 12 10 10 11 11 12 13 13 14 15 16 16 16 17 20 22 23 23 22 21 20 19 19 20 24 28 29 29 26 20 16 19 24 27 29 30 31 31 31 30 31 30
25 21 15 11 11 11 9 6 3 1 3 3 3 3 3 4 4 4 4 5 5 5 6 8 9 10 10 12 13 13 14 14 14 14 14 14 15 16 17 17 18 18 18 17 15 17 20 23 24 24 24 23 19 16 17 20 25 27 28 29 26 19 15 20 26 28 29 31 32 31 31 30 30 30
25 20 15 12 11 10 8 5 1 1 2 3 5 4 3 3 3 3 4 4 4 5 6 7 8 9 10 12 13 14 17 18 18 17 17 17 18 19 19 20 20 20 20 18 17 19 21 24 24 25 25 24 21 20 21 22 24 27 28 27 25 20 17 22 29 30 29 30 30 29 28 27 26 25
23 18 13 11 10 9 7 4 2 2 5 6 6 5 4 4 4 5 5 4 4 5 6 7 8 10 11 12 15 18 21 21 19 18 18 19 19 19 21 22 22 21 21 20 20 22 24 25 25 25 25 25 24 24 24 23 24 27 28 26 24 22 21 25 29 29 30 31 30 28 27 25 23 22
19 15 11 10 10 8 5 4 4 7 8 8 7 5 4 5 6 6 5 5 5 6 7 8 9 10 12 14 17 20 20 19 18 17 18 18 19 20 22 22 21 22 23 24 23 24 25 26 27 26 25 25 25 26 26 25 24 25 25 25 24 24 26 28 30 30 31 31 30 28 27 24 22 21
15 12 11 11 10 8 7 8 10 10 10 8 7 6 6 6 6 5 5 6 6 7 7 9 10 11 12 14 16 17 15 15 15 15 15 17 19 21 21 21 21 23 24 26 27 27 27 26 26 26 26 25 24 24 26 25 23 22 23 26 27 27 29 31 32 32 32 29 27 28 27 25 24 23
14 13 12 11 11 11 11 13 13 12 10 9 8 6 6 5 5 4 5 6 6 6 8 9 10 10 12 14 14 13 12 11 12 13 16 18 20 21 21 21 22 22 23 25 28 29 28 27 26 26 25 22 20 20 21 22 23 23 24 27 28 29 31 32 31 30 30 28 27 27 27 26 26 26
14 13 12 12 13 14 15 15 14 11 10 9 7 6 5 4 3 4 5 5 5 6 8 8 8 9 11 11 10 9 10 11 13 15 17 19 20 21 22 21 21 22 23 24 26 28 29 29 29 28 25 21 19 18 17 17 21 25 27 27 27 28 29 28 27 27 28 27 26 26 27 28 28 28
13 12 13 14 15 15 15 14 12 10 8 7 6 6 5 4 2 3 4 4 5 6 6 6 6 7 7 7 7 9 11 14 16 17 18 19 20 21 21 21 21 22 23 24 26 28 29 29 30 28 24 21 20 18 16 16 19 23 26 26 26 26 27 27 28 28 28 27 25 25 26 28 30 31
13 14 15 16 16 15 14 12 11 9 7 7 6 5 4 3 3 3 4 3 3 3 3 3 4 5 5 7 9 12 13 14 16 17 19 21 22 21 21 21 21 22 23 24 25 27 28 28 27 24 19 16 14 12 14 19 20 19 22 25 25 25 27 28 29 29 26 25 25 24 24 26 30 32
14 15 16 16 15 14 13 12 10 9 8 7 6 5 4 3 4 4 3 2 2 2 2 3 4 6 9 11 11 12 12 13 15 18 21 22 22 21 21 21 21 22 23 24 25 26 25 25 25 21 16 11 8 7 15 23 24 20 20 23 24 25 26 28 28 27 26 24 24 24 24 26 30 33
16 17 17 16 14 13 13 12 11 10 8 7 6 5 4 4 4 2 1 1 2 2 3 5 7 10 11 11 11 11 12 13 16 20 23 24 23 21 20 21 22 23 24 25 25 24 23 22 23 22 17 10 6 7 13 22 27 27 26 24 23 24 25 26 25 26 26 26 26 26 26 27 30 32
18 18 17 16 14 14 13 12 11 10 9 7 6 5 5 3 2 0 1 1 2 3 5 8 10 11 10 9 9 10 11 14 19 22 24 24 22 21 20 21 22 23 24 24 24 23 23 22 22 24 22 16 12 14 18 23 29 32 30 25 22 23 24 25 25 25 25 26 27 29 29 29 30 30
18 18 17 16 15 14 13 12 11 9 8 7 6 5 4 2 0 1 1 1 2 5 8 9 9 9 8 8 9 10 13 18 22 23 23 22 21 20 20 21 22 22 22 22 22 23 24 25 25 26 25 21 20 24 26 26 27 31 31 27 23 21 22 23 24 25 25 26 27 28 28 28 30 30
19 18 17 16 15 14 13 12 10 9 8 7 5 4 2 1 1 1 1 1 3 6 8 7 6 7 7 7 8 12 17 21 22 23 23 21 20 21 21 21 21 21 20 20 22 23 25 27 28 25 22 22 24 25 22 17 18 26 33 33 29 24 22 22 23 24 25 27 26 25 24 25 26 26
19 19 18 16 15 14 12 11 10 9 7 6 5 3 1 1 1 1 1 2 5 6 5 4 5 6 6 7 10 15 19 21 22 23 22 20 20 21 21 20 20 21 20 21 23 25 27 28 26 23 21 22 23 20 15 13 16 25 33 36 35 31 28 25 24 23 23 24 23 22 22 21 18 16
21 21 19 17 15 13 12 10 9 8 7 5 4 3 2 2 3 2 0 3 5 5 5 5 5 5 6 8 13 17 20 22 23 22 21 20 20 20 20 20 20 21 21 22 24 26 27 26 24 22 21 22 21 18 17 18 21 24 28 32 35 35 33 31 28 25 23 22 20 19 18 18 15 13
24 22 19 17 14 12 11 9 8 7 6 5 4 3 3 3 4 2 1 3 5 5 5 4 4 6 8 12 16 19 21 23 23 21 20 20 19 19 19 20 20 21 22 23 24 26 26 25 24 22 21 21 21 20 20 21 22 24 27 29 31 33 34 33 32 30 27 24 22 20 19 20 20 21
24 21 19 16 14 12 10 9 7 7 6 5 4 4 4 4 3 2 2 4 5 5 4 5 6 8 12 15 18 21 22 22 21 21 20 20 19 19 19 19 19 21 21 21 23 24 25 25 24 22 21 22 22 22 22 23 23 24 27 28 28 29 30 31 30 30 29 28 26 24 24 23 22 21
Wind_Direction
101 95 90 87 85 84 86 85 84 82 74 70 66 63 68 85 111 112 59 35 15 28 33 28 27 32 44 60 55 52 54 54 59 65 60 54 51 47 43 38 31 26 22 17 14 13 8 358 346 335 326 315 304 296 293 291 290 290 290 288 285 285 286 288 289 288 288 286 282 279 274 269 267 266
107 101 95 93 92 90 90 89 89 89 83 77 72 67 65 68 77 103 114 73 25 21 26 30 37 47 60 71 67 60 59 59 64 68 63 57 53 50 46 41 35 28 22 18 13 10 9 9 8 3 356 346 330 314 301 293 286 284 284 285 285 285 284 285 286 287 287 286 285 283 281 277 274 275
110 105 100 98 97 95 93 91 92 91 86 80 74 70 67 66 66 71 93 90 35 28 34 48 59 63 66 70 68 62 58 56 57 57 52 48 45 43 42 38 32 27 23 19 15 11 10 8 5 2 1 359 354 346 335 320 302 289 282 280 283 284 284 283 283 284 285 284 283 282 281 281 279 277
111 106 102 100 98 98 94 89 90 89 85 81 75 72 70 69 70 70 76 86 48 45 53 61 60 59 62 62 54 50 48 45 42 41 38 35 32 31 31 29 27 26 27 24 22 21 16 9 1 356 352 350 350 349 346 343 334 319 301 288 281 280 281 281 280 280 281 281 281 281 279 279 279 278
111 108 104 100 98 99 96 88 87 87 85 83 77 74 74 71 71 74 75 75 56 53 59 60 53 50 53 51 42 36 34 31 29 29 28 26 24 22 21 20 20 22 21 16 13 13 10 4 0 357 352 346 344 344 345 344 341 336 328 316 301 288 281 279 278 278 278 279 280 279 277 276 276 276
113 112 106 101 99 100 96 89 86 85 85 85 80 75 74 72 69 72 75 75 67 53 52 53 49 44 43 41 36 29 26 23 20 20 20 19 17 16 13 10 10 11 9 3 0 0 0 359 358 359 358 353 347 346 348 347 343 337 332 328 322 311 296 285 280 279 279 281 282 281 278 274 273 273
114 112 107 102 100 100 98 91 87 87 86 86 83 76 74 72 69 68 71 74 74 63 53 50 47 43 40 36 29 25 23 21 20 20 20 16 14 13 11 8 6 4 0 356 354 354 355 355 357 4 7 1 355 351 351 355 355 351 344 337 331 326 317 305 293 285 282 283 284 285 283 277 271 268
112 110 107 104 103 100 97 93 90 88 86 84 83 78 74 72 70 69 71 72 74 71 61 52 48 45 41 33 26 22 22 21 21 23 22 17 15 16 17 18 16 11 4 357 355 358 359 356 357 5 7 3 359 355 352 358 2 359 356 352 346 340 333 325 315 304 294 289 287 286 285 282 275 268
112 110 109 107 107 103 98 95 93 89 85 82 81 78 73 70 69 68 69 71 72 70 63 55 48 43 38 33 29 26 25 24 21 21 22 21 17 16 18 24 24 18 13 10 9 10 10 9 6 5 5 5 5 4 2 3 2 359 357 355 350 345 340 333 328 323 314 306 298 291 288 285 282 275
112 111 111 109 108 105 99 96 94 92 87 82 80 76 71 67 65 64 63 64 66 66 62 56 48 41 35 30 29 27 28 28 24 20 19 19 18 15 15 22 24 19 14 14 16 14 12 13 15 12 9 8 7 7 6 2 0 358 355 350 344 339 337 333 328 325 322 318 312 304 295 287 283 280
115 112 112 110 105 103 100 96 95 94 90 85 80 74 69 65 62 60 58 56 57 59 58 52 46 40 33 28 26 24 24 27 26 21 15 12 12 11 12 17 19 15 10 8 9 9 5 4 8 6 4 3 360 357 356 354 355 357 356 351 345 339 336 335 333 329 325 322 319 315 308 298 287 281
121 119 117 113 107 102 99 96 95 93 89 87 82 74 66 62 61 59 55 52 49 49 48 45 38 33 28 23 19 17 17 19 19 19 17 11 7 4 4 9 14 12 9 6 5 7 3 356 354 354 352 353 352 349 348 351 356 0 359 356 355 351 345 341 339 336 333 328 323 319 316 310 300 289
129 127 126 123 117 108 100 97 97 93 88 83 80 74 66 62 62 60 55 51 46 41 39 36 29 26 22 15 9 7 9 8 5 9 16 14 8 2 357 1 10 13 8 4 3 7 6 356 351 350 349 348 347 343 344 353 1 1 357 355 355 354 350 345 341 337 333 329 326 321 319 316 311 303
126 122 125 130 130 121 107 101 99 95 89 81 79 78 73 66 64 61 54 49 43 39 36 31 25 20 12 3 357 353 353 351 349 1 14 13 9 4 357 355 3 9 8 2 357 357 358 354 349 350 350 350 348 343 343 354 1 359 356 353 350 348 347 348 346 342 334 326 323 323 322 321 319 314
121 116 117 127 135 130 116 107 103 99 91 83 82 85 84 76 65 55 45 38 36 38 37 33 27 18 6 359 357 351 344 341 341 359 20 19 12 7 358 346 350 0 4 360 352 347 348 350 350 349 351 353 352 347 344 351 357 357 353 350 348 347 346 348 350 347 341 331 323 323 325 325 325 323
125 120 117 121 131 132 125 116 109 103 95 87 81 81 88 89 64 44 38 38 41 43 39 33 28 20 8 3 3 358 346 339 344 6 27 28 17 6 354 338 339 353 359 354 348 346 347 351 350 348 350 351 350 347 344 346 351 353 350 347 347 348 344 343 345 346 345 339 328 323 323 323 324 325
130 126 122 123 126 130 132 129 118 106 98 96 89 80 83 83 64 50 49 51 50 44 38 32 28 23 13 10 11 10 5 0 11 32 33 25 14 1 352 342 340 351 355 347 342 346 348 350 348 344 346 348 347 345 344 348 351 350 346 345 347 349 345 341 340 339 341 341 336 330 325 321 321 322
139 133 132 130 127 127 132 132 125 109 97 101 101 87 79 75 69 66 63 57 49 41 36 32 28 26 23 21 19 18 23 36 53 46 27 14 6 357 351 348 348 355 354 342 338 343 344 345 342 340 343 344 343 343 343 347 352 348 342 342 346 348 348 345 342 339 338 338 337 337 332 325 320 320
144 136 138 137 131 126 123 117 109 104 101 100 99 94 87 83 79 73 61 51 44 40 37 33 27 23 24 27 23 19 26 42 49 29 9 3 0 353 350 350 351 357 356 347 347 344 340 342 337 335 342 343 340 342 342 342 346 345 340 338 340 344 349 349 348 347 345 343 341 339 337 332 324 320
140 134 141 141 135 127 119 112 104 105 105 99 96 97 97 93 84 72 59 50 46 44 40 33 18 11 12 20 23 23 29 35 25 8 359 0 358 349 345 343 345 355 359 356 354 343 336 341 337 332 341 344 338 340 341 337 338 341 341 337 334 339 345 347 349 354 354 353 351 348 344 339 331 324
143 143 147 143 137 129 119 115 114 112 106 97 94 95 95 92 82 69 60 51 46 41 33 21 7 1 6 20 33 31 27 21 13 6 2 2 355 346 343 337 340 354 2 0 354 343 334 341 340 333 339 342 335 335 337 335 335 337 342 343 338 337 341 342 346 351 353 354 355 356 356 350 341 332
156 150 148 142 136 128 121 122 122 112 102 98 95 91 89 87 77 64 55 45 39 32 22 14 7 2 8 27 45 27 18 14 11 9 5 1 354 351 350 344 344 353 0 358 352 343 337 343 344 338 335 334 330 332 335 336 337 339 344 349 346 341 338 337 340 345 349 350 350 353 357 357 351 345
165 155 147 141 133 125 124 126 120 108 100 99 95 89 85 79 66 52 36 26 21 13 8 9 10 15 27 40 36 18 12 11 9 5 359 354 355 0 0 358 357 348 347 355 354 344 340 343 345 343 337 326 326 333 334 335 338 341 344 346 345 342 338 335 338 343 349 351 348 345 349 354 355 353
168 161 151 140 132 128 127 126 120 111 102 95 87 80 68 51 38 28 18 12 2 355 2 16 27 38 39 31 17 7 3 2 0 357 354 353 360 5 2 2 3 345 338 352 355 347 342 341 341 341 337 321 317 327 330 332 335 339 341 341 342 343 342 341 345 350 354 354 350 344 342 347 352 353
174 168 159 145 136 134 132 128 125 117 104 88 68 47 28 12 9 11 11 7 358 358 15 36 42 32 21 9 3 0 356 354 354 356 5 10 11 10 5 0 354 342 340 350 354 347 342 340 338 336 332 323 317 320 325 329 331 334 337 338 340 344 349 355 359 358 356 352 350 346 342 342 347 351
182 176 166 153 145 141 136 134 132 121 99 73 39 17 9 6 9 16 15 8 6 15 36 49 36 24 17 9 5 4 2 0 1 8 19 18 12 10 9 3 352 342 342 349 351 344 339 338 338 336 332 328 325 324 324 324 326 330 333 336 341 348 359 8 5 357 353 350 349 347 342 339 341 346
187 182 172 160 154 150 144 142 141 116 62 35 22 16 15 18 26 33 24 14 20 36 50 47 35 28 24 15 12 11 9 7 6 7 8 5 360 357 355 353 351 347 344 346 349 346 343 342 343 342 338 332 328 325 322 319 321 324 327 331 338 347 358 3 358 353 350 346 344 345 343 339 339 340
192 186 180 171 162 157 154 155 151 70 23 31 61 73 56 49 56 49 26 24 42 55 51 42 35 30 23 15 11 8 3 357 351 347 346 347 347 345 341 339 340 341 342 344 346 348 348 346 345 344 340 335 327 319 317 316 317 319 320 324 333 343 348 349 349 348 346 343 341 341 343 341 340 340
192 185 182 173 165 165 165 167 174 31 66 104 116 114 105 93 73 41 35 48 57 55 49 42 34 27 17 9 4 358 350 345 343 344 345 344 344 344 343 339 335 337 345 351 350 349 349 347 344 341 337 333 326 317 315 314 314 318 318 318 327 337 340 340 343 344 343 342 340 339 340 340 339 340
181 177 174 169 170 176 179 185 186 130 126 130 128 122 109 87 57 40 44 53 51 50 46 35 25 18 10 3 358 352 347 346 351 354 355 354 355 354 351 346 342 344 349 352 350 349 349 348 345 339 334 331 327 321 319 316 312 315 319 322 328 332 333 336 341 342 341 339 337 336 336 337 337 337
171 171 168 170 177 184 187 180 157 141 136 132 124 112 88 62 49 43 42 41 39 38 29 17 13 10 3 357 355 352 351 354 359 360 358 358 358 356 352 348 346 346 346 347 347 347 347 346 344 340 334 329 325 323 323 320 315 317 324 331 331 327 328 333 337 337 337 336 336 337 338 337 338 338
169 172 174 178 181 179 167 152 143 138 135 128 115 100 79 61 51 45 36 27 21 17 11 7 6 2 359 360 0 359 359 360 360 358 357 356 353 352 351 347 342 340 341 342 343 344 344 345 345 343 338 333 328 328 328 325 325 327 330 332 331 327 329 332 331 331 334 335 335 336 337 336 337 337
170 175 179 178 170 158 148 143 140 137 134 127 116 99 78 67 59 42 19 7 6 7 5 3 3 5 8 9 8 5 2 359 357 354 352 352 351 350 349 344 339 338 338 337 338 340 343 345 346 343 341 339 336 335 331 328 330 333 332 330 330 327 327 329 329 332 336 337 334 333 331 329 330 329
177 178 173 164 157 151 147 145 143 139 136 130 119 102 86 79 60 22 5 5 13 12 7 8 14 17 16 13 9 5 359 353 351 351 352 353 353 351 347 342 339 340 337 335 336 340 341 343 343 340 338 339 337 335 332 329 330 331 328 326 325 323 323 328 332 335 337 336 333 330 326 322 321 320
183 176 161 152 149 148 147 147 145 141 138 132 121 111 104 92 48 19 26 38 32 21 22 31 28 19 18 16 6 356 351 350 351 354 356 356 353 350 347 341 337 337 336 334 336 339 339 339 338 336 335 337 335 331 332 334 333 329 325 323 323 322 322 326 328 328 329 330 329 326 322 317 316 317
177 169 158 151 148 148 148 148 147 144 142 136 130 127 121 104 71 58 63 58 37 28 41 44 27 19 15 3 352 349 353 357 357 355 353 351 347 345 342 338 335 334 334 333 334 336 336 336 335 333 333 334 333 326 325 331 333 328 321 320 321 322 323 325 325 325 325 325 324 321 316 312 312 315
172 165 159 154 153 154 153 152 151 150 147 143 139 136 129 115 99 85 72 48 23 32 35 27 22 13 0 352 353 358 1 359 354 351 350 348 346 344 341 337 335 334 332 331 332 334 334 333 332 332 330 328 328 317 317 324 328 326 322 320 318 319 322 323 323 324 325 324 321 317 314 310 309 313
173 167 162 159 159 160 160 159 159 156 153 151 148 139 134 127 112 93 50 0 5 23 23 15 6 0 357 0 6 4 356 350 347 348 348 347 344 343 339 335 333 332 330 329 330 332 333 330 329 329 326 320 316 316 319 321 321 321 322 323 318 316 319 321 318 318 321 321 319 317 313 309 308 312
176 168 165 164 165 166 166 166 166 163 159 159 159 154 151 144 125 58 317 335 15 17 9 3 1 3 8 10 3 352 345 345 344 343 343 342 340 338 336 333 331 330 329 327 327 330 331 329 327 326 322 315 309 312 314 312 310 312 317 322 320 316 317 317 314 314 315 317 317 316 315 314 314 318
172 167 168 169 169 171 171 170 170 170 167 165 168 171 171 171 216 284 286 356 21 7 1 2 8 13 8 354 344 341 341 341 341 339 337 337 336 335 334 332 330 329 327 324 324 326 327 325 326 327 322 315 313 314 312 308 306 309 315 320 321 319 316 314 312 311 311 313 314 314 314 315 318 322
168 167 170 173 173 174 174 172 171 172 171 171 177 181 180 212 266 236 212 9 6 4 5 10 10 358 342 330 334 339 339 339 339 338 335 334 333 333 333 332 330 329 327 322 320 321 322 324 328 328 323 318 318 318 316 311 309 314 318 320 323 323 319 315 312 308 306 309 310 308 310 312 312 315
176 170 171 175 177 177 176 176 175 176 177 180 187 194 194 205 212 195 179 13 7 2 356 351 343 333 324 321 329 334 337 338 338 336 334 332 330 330 331 330 328 326 324 319 317 318 321 325 330 328 322 320 321 320 314 307 309 314 317 319 322 324 324 322 319 314 311 310 306 301 303 308 309 311
181 174 174 177 178 177 177 178 179 183 187 191 198 213 221 207 196 192 233 355 352 338 325 328 332 323 314 319 325 331 335 337 335 332 331 331 329 327 327 327 326 324 322 318 317 319 323 327 328 324 319 320 322 317 308 306 309 312 314 317 320 323 325 325 325 325 324 321 316 309 304 302 299 297
176 176 176 176 176 178 179 181 185 192 200 203 207 218 220 210 205 209 310 333 331 323 320 324 319 307 311 321 327 330 332 333 332 330 329 328 328 327 326 326 326 325 323 321 320 322 325 326 324 320 318 318 319 315 309 308 311 312 312 315 318 320 323 325 326 328 328 328 329 328 322 312 305 300
176 177 176 175 177 179 180 185 195 203 208 211 212 215 215 212 212 234 306 321 321 317 310 303 300 305 316 324 327 329 331 331 330 328 327 327 327 328 328 329 329 326 325 325 323 321 323 322 320 318 317 316 316 315 311 308 309 310 312 315 317 318 320 321 322 324 325 326 329 332 330 327 324 318